Regional Weather Roundup
Issued by NWS

Home | Current Version | Previous Version | Text Only | Print | Product List | Glossary Off
Versions: 1 2 3 4 5 6 7 8 9 10 11 12 13 14 15 16 17 18 19 20 21 22 23 24 25 26 27 28 29 30 31 32 33 34 35 36 37 38 39 40 41 42 43 44 45 46 47 48 49 50

000
ASUS43 KLMK 260910
RWRKY
KENTUCKY REGIONAL WEATHER ROUNDUP
NATIONAL WEATHER SERVICE LOUISVILLE KY
500 AM EDT SUN MAR 26 2017

NOTE "FAIR" INDICATES FEW OR NO CLOUDS BELOW 12,000 FEET
WITH NO SIGNIFICANT WEATHER AND/OR OBSTRUCTIONS TO VISIBILITY.

KYZ001>023-026-027-061>063-070>075-261000-
WESTERN AND SOUTH CENTRAL KENTUCKY

CITY           SKY/WX    TMP DP  RH WIND       PRES   REMARKS
PADUCAH        MOCLDY    56  53  90 S7        29.88F
HENDERSON      CLOUDY    57  54  88 S8        29.88F
OWENSBORO      LGT RAIN  58  56  93 S6        29.92S
HOPKINSVILLE   CLOUDY    58  56  94 S3        29.93S
BOWLING GREEN  CLOUDY    58  55  90 S7        29.96S
GLASGOW        LGT RAIN N/A N/A N/A SE7       29.96F
$$

KYZ024-025-028>034-038-045-046-053-261000-
NORTH CENTRAL KENTUCKY

CITY           SKY/WX    TMP DP  RH WIND       PRES   REMARKS
LOUISVILLE/SDF LGT RAIN  59  56  89 SE10      29.96F
LOUISVILLE/LOU LGT RAIN  59  56  89 SE7       29.97S
FORT KNOX      LGT RAIN  57  57 100 S8        29.94F
$$

KYZ035>037-039>044-047>052-055>060-089>105-261000-
NORTHEAST KENTUCKY

CITY           SKY/WX    TMP DP  RH WIND       PRES   REMARKS
LEXINGTON      LGT RAIN  58  54  86 SW12      30.00F
COVINGTON      CLOUDY    59  56  89 SW7       29.97F
FRANKFORT      CLOUDY    59  54  83 S9        29.98F
$$

KYZ054-064>069-076>088-106>120-261000-
SOUTHEAST KENTUCKY

CITY           SKY/WX    TMP DP  RH WIND       PRES   REMARKS
JACKSON        CLOUDY    64  46  52 SE7       30.00F
LONDON         LGT RAIN  59  49  69 SW7       30.02R
SOMERSET       LGT RAIN  55  55 100 CALM      30.03S
MIDDLESBORO    RAIN      56  53  90 CALM      30.04R
MONTICELLO     RAIN      56  55  97 CALM      30.02F
$$





USA.gov is the U.S. government's official web portal to all federal, state and local government web resources and services.